Current Version              Previous Version:    01  02  03  04  05  06  07  08  09  10  11  12  13  14  15  16  17  18  19  20  21  22  23  24  25  26  27  28  29  30  
   31  32  33  34  35  36  37  38  39  40  41  42  43  44  45  46  47  48  49  50  51  52  53  54  55  56  57  58  59  60  

[Printable]
529
ASUS44 KLUB 252310
RWRTX
WEST TEXAS WEATHER ROUNDUP
NATIONAL WEATHER SERVICE LUBBOCK TX
600 PM CDT SAT OCT 25 2014

NOTE: "FAIR" INDICATES FEW OR NO CLOUDS BELOW 12,000 FEET WITH NO
SIGNIFICANT WEATHER AND/OR OBSTRUCTIONS TO VISIBILITY.

TXZ004-006>008-010-012-014-016-OKZ002-260000-
TEXAS PANHANDLE/OKLAHOMA PANHANDLE

CITY           SKY/WX    TMP DP  RH WIND       PRES   REMARKS
AMARILLO       SUNNY     82  48  30 S13       30.09F
BORGER         SUNNY     87  44  22 S15G21    30.04F
CANADIAN       CLEAR     88  48  25 S9        30.01F
DALHART        SUNNY     86  37  17 S16       30.06F
DUMAS            N/A     85  43  22 S16       30.06F
GUYMON         CLEAR     88  41  19 S14G24    29.99F
HEREFORD       SUNNY     84  46  25 SE16      30.09F
PAMPA          CLEAR     83  44  25 S13       30.07F
PERRYTON       CLEAR     85  44  23 S15       30.02F
$$

TXZ026-029-035-045-048-260000-
SOUTHERN PANHANDLE/SOUTH PLAINS/ROLLING PLAINS

CITY           SKY/WX    TMP DP  RH WIND       PRES   REMARKS
CHILDRESS      CLEAR     89  48  24 S14       30.04F
SEMINOLE       SUNNY     83  48  29 SW8       30.12S
LUBBOCK        SUNNY     83  50  31 S12       30.10F
PLAINVIEW      SUNNY     80  49  33 S9        30.09F
SNYDER         SUNNY     83  51  33 S5        30.09F
$$

TXZ052-054-060>062-072-078-127-140-154-169-260000-
PERMIAN BASIN/CONCHO VALLEY/BIG COUNTRY/EDWARDS PLATEAU

CITY           SKY/WX    TMP DP  RH WIND       PRES   REMARKS
ABILENE        SUNNY     87  50  27 S9        30.08F
BIG SPRING     SUNNY     85  45  24 S7        30.11F
BRADY          SUNNY     86  54  32 SE7       30.09S
BROWNWOOD      CLEAR     84  52  32 SE7       30.07F
JUNCTION       SUNNY     86  51  29 S8        30.09F
MIDLAND        SUNNY     87  48  25 S9        30.09F
ODESSA         SUNNY     86  47  25 SW8       30.10F
SAN ANGELO     SUNNY     88  45  22 S9        30.08S
SONORA         SUNNY     84  48  28 S10       30.15S
SWEETWATER     SUNNY     85  46  25 SE9       30.12F
WINK           SUNNY     86  46  24 S6        30.07F
$$

TXZ055-058-074-075-080-082-260000-
FAR WEST/SOUTHWEST MOUNTAINS/TRANS PECOS

CITY           SKY/WX    TMP DP  RH WIND       PRES   REMARKS
ALPINE         SUNNY     80  43  26 SW3       30.24F
DRYDEN           N/A     85  52  32 E9        30.07F
EL PASO        SUNNY     85  41  21 VRB5      30.13F
FORT STOCKTON  SUNNY     86  47  25 VRB7      30.09F
GUADALUPE PASS SUNNY     77  44  30 SW18      30.24F
MARFA          SUNNY     79  45  29 S5        30.24S
PECOS          SUNNY     86  51  30 NE8       30.06F
PRESIDIO       FAIR      87  44  22 SW3       30.09S
$$

TXZ014-016-019-021>030-083-260000
TEXAS TECH WEST TEXAS MESONET/TEXAS PANHANDLE/NORTHERN SOUTH PLAINS

CITY           SKY/WX    TMP DP  RH WIND       PRES   REMARKS
ABERNATHY 5ENE   N/A     82  48  30 S13       30.11F
AMARILLO 9NNE    N/A     85  48  27 S10       30.05F
AMARILLO 7SSE    N/A     82  49  30 S13       30.09F
AMHERST 1NE      N/A     82  46  27 S10       30.10F
BOOTLEG 11WNW    N/A     81  43  25 SW14      30.14S
CANADIAN 6E      N/A     86  52  30 S10       30.00F
CAPROCK CYN SP   N/A     85  46  26 S12       30.06F
CHILDRESS 2NNE   N/A     87  47  24 S12       30.03S
CLARENDON 2WSW   N/A     85  46  24 S12       30.06S
CLAUDE 12SW      N/A     82  49  31 S14       30.09S
DIMMITT 2NE      N/A     82  44  25 S14       30.10F
FLOYDADA 2NNE    N/A     81  45  28 S12       30.10F
FRIONA 2NE       N/A     83  41  22 S13       30.11S
GOODLETT 3W      N/A     89  46  23 S12       30.01F
HART 3N          N/A     82  45  27 S10       30.10F
HEREFORD 2NW     N/A     83  42  23 S10       30.09F
MCLEAN 1E        N/A     85  46  26 S12       30.05S
MEMPHIS 1NE      N/A     87  47  24 S10       30.02F
MULESHOE 2SSW    N/A     83  42  23 S12       30.10F
OLTON 6S         N/A     80  50  34 S10       30.10F
PALO DURO SP     N/A     84  47  28 S12       30.09F
PAMPA 2E         N/A     83  46  27 S10       30.06F
PLAINVIEW 1S     N/A     82  49  31 S9        30.10S
SILVERTON 7ESE   N/A     83  47  28 S13       30.09F
TULIA 2ENE       N/A     82  48  30 S14       30.10S
TURKEY 2WSW      N/A     86  48  27 S10       30.04F
UMBARGER 3NNE    N/A     83  46  27 S10       30.09F
$$

TXZ033>036-039>041-045>048-260000
TEXAS TECH WEST TEXAS MESONET/SOUTH PLAINS

CITY           SKY/WX    TMP DP  RH WIND       PRES   REMARKS
AIKEN 3WSW       N/A     80  52  37 S14       30.11F
ANDREWS 2NE      N/A     84  45  24 S7        30.11F
ANTON 6SSW       N/A     83  50  31 S12       30.10F
BROWNFIELD 2S    N/A     81  49  33 S9        30.11S
DENVR CTY 7WNW   N/A     81  44  26 S9        30.12S
GAIL 2ESE        N/A     83  49  31 S5        30.08F
LAMESA 2SE       N/A     82  48  29 SE9       30.10F
LEVELLAND 4S     N/A     83  47  27 S10       30.11S
LUBBOCK 3WNW     N/A     83  49  30 S7        30.10F
MORTON 1ENE      N/A     82  45  27 S10       30.11F
ODONNELL 1N      N/A     82  46  27 SE7       30.10F
PLAINS 3N        N/A     82  45  27 S8        30.12F
RALLS 1SE        N/A     81  51  35 S12       30.11F
REESE CENTER     N/A     82  48  31 S10       30.11S
SEMINOLE 2NNE    N/A     83  47  28 S9        30.11S
SLATON 2NE       N/A     81  49  32 SE12      30.10F
SNYDER 3E        N/A     84  52  33 SE5       30.09S
SUNDOWN 8SW      N/A     82  47  28 S9        30.11F
TAHOKA 3NNE      N/A     82  51  33 SE13      30.10F
WOLFFORTH 6SSW   N/A     83  51  33 S9        30.11F
$$

TXZ031-032-036>038-042>044-260000-
TEXAS TECH WEST TEXAS MESONET/ROLLING PLAINS

CITY           SKY/WX    TMP DP  RH WIND       PRES   REMARKS
ASPERMONT 3NE    N/A     87  52  30 SW6       30.05S
FLUVANNA 3WNW    N/A     81  56  42 S5        30.10S
GRAHAM 5SSW      N/A     82  46  28 S12       30.10S
GUTHRIE 10WSW    N/A     85  48  27 S10       30.05F
HASKELL 1NW      N/A     89  36  15 S9        30.04S
JAYTON 1SSE      N/A     85  49  28 S9        30.07F
KNOX CITY 3NW    N/A     88  48  24 SW7       30.03F
LK A HENRY 1NW   N/A     83  55  38 SE5       30.07F
NORTHFIELD 1S    N/A     87  50  27 S10       30.04S
ODELL 4ENE       N/A     88  49  25 S10       30.02F
PADUCAH 10SW     N/A     85  50  29 S10       30.05S
POST 1NE         N/A     83  52  34 SE7       30.09S
RRING SPRGS 3N   N/A     83  50  32 S12       30.08S
SEYMOUR 3NW      N/A     88  50  27 S5        30.03F
SPUR 1W          N/A     83  47  28 S9        30.07S
WEINERT 2NNE     N/A     89  46  23 S8        30.04S
WHITE RVR 6NE    N/A     82  51  33 S12       30.09S
$$

TXZ052-054-060>062-072-078-127-140-154-169-260000-
TEXAS TECH WEST TEXAS MESONET/PERMIAN BASIN/
CONCHO VALLEY/BIG COUNTRY/EDWARDS PLATEAU

CITY           SKY/WX    TMP DP  RH WIND       PRES   REMARKS
COYANOSA 2N      N/A     87  51  28 N2        30.07F
JUNCTION 1SSW    N/A     86  54  33 S7        30.10S
MERTZON 3NNE     N/A     85  48  27 S10       30.10F
SAN ANGELO 7NW   N/A     87  44  22 S9        30.08F
STRLNG CT 4WSW   N/A     87  43  21 S7        30.09F
ST LAWRNCE 5SW   N/A     86  37  17 SE8       30.10S
SWEETWATR 11SW   N/A     84  49  30 SE9       30.10F
WALL 1E          N/A     87  47  24 S6        30.08F
$$

TXZ055-058-074-075-080-082-260000-
TEXAS TECH WEST TEXAS MESONET/FAR WEST/SOUTHWEST MOUNTAINS/TRANS PECOS

CITY           SKY/WX    TMP DP  RH WIND       PRES   REMARKS
PRSMN GAP BBNP   N/A     87  50  28 SE3       30.09F
GUADLPE MTN NP   N/A     74  39  28 W13       30.25S
$$